Location: Newark
(60.6414°N, 46.5703°E)
Time: 16:53:37
(UTC+00:00)

Envisat - Visible Passes

Search period start: 16 October 2019 00:00
Search period end: 26 October 2019 00:00
Orbit: 764 x 766 km, 98.1° (Epoch: 16 October)

Date Brightness Start Highest point End Pass type
(mag) Time Alt. Az. Time Alt. Az. Time Alt. Az.
16 Oct 6.6 02:01:50 10° ENE 02:03:15 11° ENE 02:04:39 10° E visible
16 Oct 3.8 15:03:32 10° S 15:08:32 55° W 15:13:34 10° NNW visible
16 Oct 6.1 16:46:16 10° WSW 16:48:44 13° W 16:51:14 10° NW visible
17 Oct 3.0 14:26:34 10° SSE 14:31:40 88° ENE 14:36:48 10° NNW visible
17 Oct 5.5 16:07:23 10° SW 16:11:23 23° W 16:15:24 10° NW visible
18 Oct 6.1 02:26:02 10° NE 02:29:14 16° E 02:32:26 10° ESE visible
18 Oct 4.6 15:29:29 10° SSW 15:34:12 38° W 15:38:59 10° NNW visible
19 Oct 3.5 14:52:10 10° S 14:57:13 65° WSW 15:02:19 10° NNW visible
19 Oct 6.0 16:34:13 10° WSW 16:37:17 16° W 16:40:22 10° NW visible
20 Oct 5.8 02:51:02 10° NE 02:55:07 24° E 02:59:11 10° SE visible
20 Oct 3.0 14:15:19 10° SSE 14:20:24 77° ENE 14:25:31 10° NNW visible
20 Oct 5.2 15:55:43 10° SSW 15:59:59 27° W 16:04:17 10° NNW visible
21 Oct 6.2 02:15:08 10° NE 02:17:47 14° E 02:20:25 10° ESE visible
21 Oct 4.2 15:18:00 10° S 15:22:51 44° W 15:27:46 10° NNW visible
21 Oct 6.3 17:02:14 10° W 17:03:17 11° WNW 17:04:19 10° WNW visible
22 Oct 3.2 14:40:50 10° SSE 14:45:55 76° WSW 14:51:04 10° NNW visible
22 Oct 5.8 16:22:19 10° SW 16:25:50 19° W 16:29:23 10° NW visible
23 Oct 5.9 02:39:56 10° NE 02:43:42 20° E 02:47:28 10° SE visible
23 Oct 3.0 14:04:06 10° SSE 14:09:09 66° ENE 14:14:13 10° NNW visible
23 Oct 4.9 15:44:06 10° SSW 15:48:35 31° W 15:53:07 10° NNW visible
24 Oct 6.4 02:04:27 10° NE 02:06:18 12° ENE 02:08:10 10° E visible
24 Oct 3.9 15:06:34 10° S 15:11:32 52° W 15:16:32 10° NNW visible
24 Oct 6.1 16:49:36 10° WSW 16:51:48 13° WNW 16:54:00 10° NW visible
25 Oct 5.4 03:05:06 10° NNE 03:09:33 29° E 03:13:58 10° SSE visible
25 Oct 3.1 14:29:32 10° SSE 14:34:38 87° WSW 14:39:47 10° NNW visible
25 Oct 5.5 16:10:32 10° SW 16:14:25 22° W 16:18:19 10° NW visible
